FW0709 Weather Reports


time (UTC)temp
C
wind
direction
speed
KPH
gust
KPH
rain 1hr
cm
rain 24hr
cm
rain mn
cm
humidity
%
barometer
mb
20260508101557 15 229 4.8 14.5 0.00 0.00 0.00 32 1024.4
20260508100056 14 318 4.8 12.9 0.00 0.00 0.00 33 1024.4
20260508094554 13 338 8.0 20.9 0.00 0.00 0.00 31 1024.5
20260508093052 13 294 6.4 16.1 0.00 0.00 0.00 34 1024.4
20260508091600 13 301 12.9 24.1 0.00 0.00 0.00 35 1024.3
20260508090046 12 304 8.0 24.1 0.00 0.00 0.00 34 1024.3
20260508084550 12 344 4.8 19.3 0.00 0.00 0.00 37 1024.3
20260508083051 12 320 11.3 25.7 0.00 0.00 0.00 37 1024.3
20260508081538 12 323 6.4 20.9 0.00 0.00 0.00 37 1024.3
20260508080058 12 278 9.7 17.7 0.00 0.00 0.00 43 1024.1
20260508074534 11 355 4.8 16.1 0.00 0.00 0.00 44 1024.0
20260508073028 11 333 8.0 17.7 0.00 0.00 0.00 46 1023.8
20260508071522 11 288 3.2 14.5 0.00 0.00 0.00 54 1023.8
20260508070022 10 312 1.6 9.7 0.00 0.00 0.00 60 1023.6
20260508064534 9 305 6.4 14.5 0.00 0.00 0.00 63 1023.5
20260508063010 8 317 3.2 12.9 0.00 0.00 0.00 67 1023.4
20260508061505 7 279 0.0 6.4 0.00 0.00 0.00 72 1023.2
20260508054559 6 271 6.4 14.5 0.00 0.00 0.00 83 1023.0
20260508053056 5 280 3.2 11.3 0.00 0.00 0.00 90 1022.8
20260508051550 3 307 1.6 11.3 0.00 0.00 0.00 93 1022.6
20260508050057 2 288 0.0 8.0 0.00 0.00 0.00 94 1022.4
20260508044541 1 238 1.6 8.0 0.00 0.00 0.00 94 1022.3
20260508043033 1 276 0.0 6.4 0.00 0.00 0.00 94 1022.1
20260508041529 0 258 1.6 8.0 0.00 0.00 0.00 94 1022.0
20260508040041 0 238 0.0 3.2 0.00 0.00 0.00 93 1021.9
20260508034529 -1 192 0.0 1.6 0.00 0.00 0.00 93 1021.7
20260508033019 -3 189 0.0 0.0 0.00 0.00 0.00 92 1021.7
20260508031519 -4 189 0.0 0.0 0.00 0.00 0.00 91 1021.5
20260508030014 -4 192 0.0 0.0 0.00 0.00 0.00 90 1021.4
20260508024521 -5 192 0.0 0.0 0.00 0.00 0.00 89 1021.3
20260508023012 -4 292 0.0 0.0 0.00 0.00 0.00 89 1021.2
20260508021508 -4 292 0.0 0.0 0.00 0.00 0.00 88 1021.1
20260508020007 -4 292 0.0 0.0 0.00 0.00 0.00 88 1021.1
20260508014504 -4 292 0.0 0.0 0.00 0.00 0.00 87 1021.0
20260508013002 -4 292 0.0 1.6 0.00 0.00 0.00 87 1020.8
20260508011558 -3 292 0.0 0.0 0.00 0.00 0.00 86 1020.5
20260508010055 -3 292 0.0 0.0 0.00 0.00 0.00 86 1020.5
20260508004555 -3 292 0.0 0.0 0.00 0.00 0.00 86 1020.4
20260508003052 -2 292 0.0 0.0 0.00 0.00 0.00 86 1020.2
20260508001548 -2 292 0.0 0.0 0.00 0.00 0.00 86 1020.0
20260508000047 -2 292 0.0 0.0 0.00 0.00 0.00 86 1020.0
20260507234552 -2 292 0.0 0.0 0.00 0.00 0.00 87 1019.7
20260507233056 -1 292 0.0 1.6 0.00 0.00 0.00 86 1019.7
20260507231539 -1 292 0.0 3.2 0.00 0.00 0.00 85 1019.6
20260507230036 -1 292 0.0 1.6 0.00 0.00 0.00 84 1019.4
20260507224534 -1 292 0.0 1.6 0.00 0.00 0.00 82 1019.4
20260507223030 0 292 0.0 0.0 0.00 0.00 0.00 82 1019.2
20260507221532 0 292 0.0 1.6 0.00 0.00 0.00 82 1019.1
20260507220034 0 292 0.0 0.0 0.00 0.00 0.00 81 1019.0
20260507214521 0 292 0.0 1.6 0.00 0.00 0.00 80 1018.8
20260507213026 0 292 0.0 1.6 0.00 0.00 0.00 80 1018.7
20260507211517 1 292 0.0 1.6 0.00 0.00 0.00 79 1018.5
20260507210016 1 292 0.0 3.2 0.00 0.00 0.00 78 1018.3
20260507204510 1 292 0.0 1.6 0.00 0.00 0.00 78 1018.2
20260507203009 1 292 0.0 1.6 0.00 0.00 0.00 75 1018.1
20260507201508 2 292 0.0 1.6 0.00 0.00 0.00 73 1017.9
20260507200010 2 292 0.0 1.6 0.00 0.00 0.00 72 1017.8
20260507194511 3 292 0.0 3.2 0.00 0.00 0.00 70 1017.6
20260507193002 3 293 0.0 6.4 0.00 0.00 0.00 70 1017.4
20260507191603 4 319 3.2 9.7 0.00 0.00 0.00 69 1017.2
20260507190113 5 311 3.2 9.7 0.00 0.00 0.00 69 1017.2
20260507184558 5 300 6.4 14.5 0.00 0.00 0.00 67 1017.0
20260507183114 5 297 3.2 14.5 0.00 0.00 0.00 66 1016.9
20260507181559 6 317 6.4 16.1 0.00 0.00 0.00 65 1016.8
20260507180055 6 305 8.0 20.9 0.00 0.00 0.00 64 1016.6
20260507174602 6 304 8.0 22.5 0.00 0.00 0.00 62 1016.4
20260507173052 6 304 12.9 19.3 0.00 0.00 0.00 62 1016.2
20260507171548 7 278 6.4 25.7 0.00 0.00 0.00 60 1016.1
20260507170047 7 259 9.7 20.9 0.00 0.00 0.00 60 1016.0
20260507164604 7 301 9.7 20.9 0.00 0.00 0.00 59 1015.8
20260507163051 8 298 6.4 17.7 0.00 0.00 0.00 57 1015.7
20260507161552 8 299 9.7 22.5 0.00 0.00 0.00 54 1015.5
20260507160040 8 325 8.0 27.4 0.00 0.00 0.00 51 1015.3
20260507154538 9 265 12.9 32.2 0.00 0.00 0.00 50 1015.1
20260507153041 9 320 14.5 29.0 0.00 0.00 0.00 51 1015.0
20260507151537 9 308 16.1 27.4 0.00 0.00 0.00 53 1014.9
20260507150036 9 263 14.5 29.0 0.00 0.00 0.00 53 1014.9
20260507144537 10 312 11.3 30.6 0.00 0.00 0.00 52 1014.8
20260507143036 10 283 16.1 30.6 0.00 0.00 0.00 51 1014.6
20260507141533 10 296 16.1 29.0 0.00 0.00 0.00 49 1014.5
20260507140030 10 298 14.5 25.7 0.00 0.00 0.00 49 1014.2
20260507134528 10 287 17.7 27.4 0.00 0.00 0.00 46 1014.1
20260507133029 10 304 11.3 33.8 0.00 0.00 0.00 49 1014.0
20260507131525 11 296 12.9 29.0 0.00 0.00 0.00 50 1013.8
20260507130027 11 245 8.0 22.5 0.00 0.00 0.00 49 1013.6
20260507124534 11 267 12.9 30.6 0.00 0.00 0.00 50 1013.5
20260507123023 11 298 4.8 29.0 0.00 0.00 0.00 50 1013.4
20260507121520 11 273 6.4 24.1 0.00 0.00 0.00 51 1013.3
20260507120020 10 264 9.7 22.5 0.00 0.00 0.00 50 1013.4
20260507114520 11 263 9.7 27.4 0.00 0.00 0.00 49 1013.3
20260507113037 11 267 9.7 30.6 0.00 0.00 0.00 49 1013.3
20260507111519 11 263 8.0 25.7 0.00 0.00 0.00 47 1013.3
20260507110018 11 215 9.7 24.1 0.00 0.00 0.00 45 1013.3
20260507104514 11 244 12.9 29.0 0.00 0.00 0.00 44 1013.4
20260507103018 11 228 14.5 32.2 0.00 0.00 0.00 41 1013.3